GEFSMW_con_maxscp_240.txt.gz
SCP
2 2 2 2 2 2 2 3 3 4 4 3 2 2 2 2 2 2 1 1 1 1 2 2 2 2 2 2 2 2 2 2 2 2 1 1 1 1 1 1 2 2 3
1 2 2 2 2 2 2 3 3 4 4 3 3 3 2 2 2 1 1 1 1 1 2 2 2 2 2 2 2 2 2 2 2 2 2 1 1 1 1 1 2 2 3
1 2 2 2 1 2 2 2 3 4 3 3 3 3 3 2 2 1 1 1 1 1 2 2 2 2 2 2 2 2 2 3 3 3 3 2 1 1 1 1 1 2 2
1 1 2 1 1 2 2 3 3 3 3 3 3 3 2 2 2 2 2 2 2 2 2 2 2 2 2 2 2 2 2 2 3 4 4 3 2 2 1 1 1 2 2
1 1 1 1 2 2 2 3 3 3 3 3 3 2 2 2 2 2 2 2 2 2 2 2 2 2 2 2 2 2 2 2 2 3 3 3 2 2 2 2 2 2 2
1 2 2 2 2 3 3 3 2 2 3 2 2 2 2 2 2 3 3 3 2 2 2 2 2 2 2 2 2 2 2 1 1 2 2 3 3 3 2 2 2 2 3
2 2 2 2 2 3 3 3 2 2 2 2 2 2 2 2 2 3 3 3 2 2 1 2 2 2 2 2 2 2 2 1 1 1 2 2 3 3 2 2 2 2 3
1 2 2 2 2 3 4 3 2 2 2 2 2 2 2 2 3 3 2 2 2 1 1 1 2 2 1 1 1 2 2 2 2 2 2 2 2 2 2 2 2 2 2
1 1 2 2 3 3 4 3 2 1 1 1 2 2 2 2 3 3 2 2 1 1 1 1 1 1 1 1 1 2 2 2 3 3 2 2 2 2 2 2 2 2 2
2 2 2 2 3 3 3 2 2 1 2 2 2 2 2 2 2 3 2 2 1 1 1 1 1 1 1 1 2 2 3 3 3 3 3 3 3 3 3 2 2 2 2
2 2 2 2 2 2 2 2 2 1 2 2 2 2 2 1 2 2 2 2 1 1 1 1 1 1 1 1 2 2 2 3 3 3 3 3 4 4 4 3 2 2 2
2 2 1 1 2 2 1 1 1 1 1 1 1 1 1 1 1 1 2 2 1 1 1 1 1 1 1 1 1 1 2 2 2 3 3 3 3 4 4 4 4 3 2
2 2 1 1 1 1 1 1 1 1 1 1 1 1 1 1 1 1 2 2 1 1 1 1 0 0 0 0 0 1 1 1 2 2 2 2 3 3 4 4 4 4 3
2 1 1 1 1 1 1 1 1 1 0 0 1 1 1 1 1 1 1 1 1 1 1 0 0 0 0 0 0 0 1 1 1 1 1 1 2 2 2 3 3 3 3
2 1 1 1 0 0 0 0 0 0 0 0 1 1 1 1 1 1 1 1 1 1 1 0 0 0 0 0 0 0 0 0 1 1 1 1 1 1 1 2 2 3 3
2 1 1 1 1 0 1 1 1 1 1 1 0 0 0 0 0 1 1 1 1 1 1 1 0 0 0 0 0 0 0 1 1 1 1 1 0 1 1 1 1 1 2
2 2 1 1 1 1 1 1 1 1 1 1 0 0 0 0 0 0 1 1 1 1 1 1 1 1 0 0 0 0 0 1 1 1 1 0 0 0 0 0 0 0 0
2 2 2 1 1 1 0 0 0 0 0 0 0 0 0 0 0 1 1 1 1 1 1 1 1 1 0 0 0 0 0 1 1 0 0 0 0 0 0 0 0 0 0
3 3 2 1 1 1 0 0 0 0 0 0 0 0 0 0 0 1 1 1 1 1 1 0 0 0 0 0 0 0 0 0 1 0 0 0 0 0 0 0 0 0 0
4 3 2 1 1 0 0 0 0 0 0 0 0 0 0 0 1 1 1 1 1 1 0 0 0 0 0 0 0 0 0 0 0 0 0 0 0 0 0 0 0 0 0
5 3 1 1 0 0 0 0 0 0 0 0 0 0 0 0 1 1 1 1 1 0 0 0 0 0 0 0 0 0 0 0 0 0 0 0 0 0 0 0 0 0 0
3 2 1 0 0 0 0 0 0 0 0 0 0 0 0 0 0 1 1 1 1 1 0 0 1 1 0 0 0 0 0 0 0 0 0 0 0 0 0 0 0 0 0
2 1 1 1 0 0 0 0 0 0 0 0 0 0 0 0 1 1 1 1 1 0 0 0 0 0 0 0 0 0 0 0 0 0 0 0 0 0 0 0 0 0 0
1 1 1 1 1 0 0 0 0 0 0 0 0 0 0 0 1 1 1 1 0 0 0 0 0 0 0 0 0 0 0 0 0 0 0 0 0 0 0 0 0 0 0
1 1 1 1 1 0 0 0 0 0 0 0 0 0 0 0 0 1 1 1 0 0 0 0 0 0 0 0 0 0 0 0 0 0 0 0 0 0 0 0 0 0 0
1 1 1 1 1 0 0 0 0 0 0 0 0 0 0 0 0 0 0 0 0 0 0 0 0 0 0 0 0 0 0 0 0 0 0 0 0 0 0 0 0 0 0

GEFSMW_con_maxscp_246.txt.gz
SCP
4 4 4 4 4 6 8 9 9 10 10 11 9 7 6 5 6 7 8 8 6 5 4 4 4 4 5 4 4 4 4 3 2 2 2 2 1 1 1 2 2 2 2
4 5 5 4 4 5 6 7 8 9 10 10 9 7 6 6 7 7 8 7 6 4 4 4 4 4 4 4 4 5 4 3 2 2 2 2 1 1 1 2 2 2 2
4 5 5 5 5 5 5 6 8 8 9 9 8 8 9 9 8 7 6 5 4 3 3 3 3 4 4 3 4 4 3 3 2 2 2 2 2 1 1 1 1 2 2
4 4 4 5 5 6 6 7 8 8 8 8 9 10 11 10 8 6 4 3 3 2 2 3 3 3 3 3 3 2 2 2 1 1 1 2 2 1 1 1 1 1 2
4 4 4 4 5 6 6 7 9 9 9 8 9 10 9 7 6 4 4 3 3 2 2 2 2 2 3 2 2 2 2 1 1 1 1 1 1 1 1 1 1 1 2
4 3 3 4 5 6 7 8 9 10 10 9 8 8 6 5 4 4 3 3 2 3 3 3 3 3 3 2 2 2 1 1 1 1 1 1 1 1 1 1 1 1 2
3 3 3 4 5 6 8 8 8 8 8 8 7 6 5 5 4 4 3 3 3 3 3 3 3 3 3 3 2 2 2 2 2 2 1 1 1 1 1 1 1 1 2
3 3 4 5 6 6 6 6 6 5 6 6 6 6 5 5 4 4 3 3 3 3 3 3 3 3 3 3 3 2 2 2 2 2 2 2 2 2 2 2 2 1 1
3 3 4 5 6 5 5 5 4 4 5 5 5 5 5 4 4 4 3 4 4 4 4 4 3 3 3 3 4 3 3 3 3 3 3 3 3 3 3 3 2 2 2
2 3 4 5 5 5 4 4 4 4 4 5 5 4 4 4 4 3 4 4 4 4 4 4 4 3 3 4 4 4 3 3 3 2 3 3 3 3 3 3 2 2 2
2 3 4 5 5 5 4 3 3 4 4 5 5 5 5 4 4 3 3 4 5 5 5 5 4 3 3 3 4 4 3 3 3 2 2 2 2 2 2 2 2 2 2
3 3 5 6 5 4 3 3 3 4 4 4 5 5 5 4 4 3 3 4 4 5 5 4 3 2 2 2 3 2 2 2 2 2 2 2 2 2 2 2 2 1 1
3 4 5 6 5 4 4 4 3 3 3 3 4 4 4 4 3 3 3 3 4 4 4 3 3 2 2 1 1 1 1 2 2 2 2 2 2 2 2 1 2 1 1
4 5 6 6 5 4 4 4 4 3 3 3 3 3 3 3 3 3 3 2 3 3 3 3 2 2 1 1 1 1 1 1 1 1 1 2 2 2 2 1 1 1 1
5 6 7 6 5 4 4 4 4 3 2 2 2 2 2 2 2 2 2 2 2 3 3 2 2 1 1 1 1 1 1 1 1 1 1 1 2 2 1 1 1 1 1
6 6 7 6 5 4 3 3 3 2 1 1 1 1 1 1 1 1 1 2 2 2 3 2 2 1 1 0 0 0 0 1 1 1 1 1 1 1 1 1 0 0 1
7 7 8 7 6 5 4 3 2 1 1 1 1 1 1 1 1 1 1 1 2 2 3 3 2 1 1 0 0 0 0 0 1 1 1 0 0 1 1 1 1 1 0
8 8 9 9 8 7 5 4 2 1 1 1 1 1 1 1 1 1 1 1 2 3 3 3 2 2 1 0 0 0 0 0 1 1 1 0 0 0 0 1 1 1 1
8 8 9 10 10 8 7 5 3 1 1 1 1 1 1 1 1 1 1 1 2 3 3 3 2 2 1 0 0 0 0 0 1 1 1 0 0 0 0 1 1 1 1
7 7 8 11 11 10 8 6 4 2 1 1 1 1 1 1 1 1 1 2 2 3 3 3 2 2 1 0 0 0 0 0 1 1 1 0 0 0 0 0 1 1 1
6 6 7 11 13 12 10 8 5 3 2 1 1 1 1 1 1 1 2 2 3 3 3 3 2 2 1 0 0 0 0 0 0 0 0 0 0 0 0 0 0 0 0
5 5 7 12 15 14 11 9 7 5 3 2 2 2 2 1 1 1 2 2 3 3 3 2 2 1 1 0 0 0 0 0 0 0 0 0 0 0 0 0 0 0 0
6 6 9 14 16 14 12 12 10 7 4 3 3 3 2 2 1 1 1 2 2 2 2 1 1 1 1 0 0 0 0 0 0 0 0 0 0 0 0 0 0 0 0
8 9 11 15 15 14 14 15 12 8 5 4 4 4 3 2 1 1 1 1 2 2 2 1 1 0 0 0 0 0 0 0 0 0 0 0 0 0 0 0 0 0 0
10 11 13 14 13 13 14 14 12 8 6 5 4 3 2 2 1 1 1 1 2 2 1 1 0 0 0 0 0 0 0 0 0 0 0 0 0 0 1 1 1 1 1
11 12 12 12 11 12 13 12 11 9 7 6 4 2 1 1 1 1 1 1 1 1 1 0 0 0 0 0 0 0 0 0 0 0 0 0 0 0 1 1 1 1 1

GEFSMW_con_maxscp_252.txt.gz
SCP
7 7 6 6 5 4 4 4 4 4 4 4 4 5 6 6 6 4 3 3 3 3 4 3 2 2 3 3 3 3 2 2 2 2 2 1 1 0 0 0 0 0 0
8 8 7 6 5 5 5 5 4 4 3 3 3 4 4 4 3 3 2 2 3 3 3 2 2 2 2 3 3 2 2 2 2 2 1 1 1 0 0 0 0 0 0
8 8 7 6 5 5 5 5 4 3 3 3 3 2 2 1 1 1 1 1 2 2 2 1 1 2 2 2 2 2 2 2 2 2 1 1 0 0 0 0 0 1 0
7 7 6 5 4 4 4 3 3 2 2 3 3 2 1 1 0 1 1 1 1 1 1 1 1 1 2 1 2 2 2 2 2 2 1 1 0 0 0 0 0 0 0
6 6 5 3 3 3 3 2 3 3 2 2 3 2 1 1 1 1 1 1 1 1 1 1 1 1 1 1 1 2 2 2 2 2 1 1 0 0 0 0 0 0 0
6 5 3 3 3 3 3 3 3 3 3 3 3 2 2 1 1 1 1 1 1 1 1 1 1 1 1 1 1 1 1 1 1 1 1 1 1 0 0 0 0 0 0
4 3 3 3 3 3 3 3 4 4 4 3 3 3 2 2 2 2 2 2 2 1 1 1 1 1 1 1 0 0 1 1 1 1 1 1 0 0 0 0 0 0 0
3 2 3 3 4 4 4 4 4 4 4 4 4 3 3 3 2 2 2 2 2 2 2 1 1 1 1 1 0 0 1 1 0 0 0 0 0 0 0 0 0 0 0
2 2 3 4 6 6 6 6 6 6 5 5 4 4 3 3 3 3 3 2 2 2 2 2 2 2 1 1 1 1 1 1 0 0 0 0 0 0 0 0 0 0 0
1 2 4 5 7 8 8 8 7 7 6 5 4 4 3 3 3 3 3 2 2 2 2 2 2 2 2 1 1 1 1 0 0 0 0 0 0 0 0 0 0 0 0
2 2 4 6 7 9 9 8 7 6 6 5 4 3 3 3 3 2 2 2 2 2 2 3 3 3 2 2 1 1 0 0 0 0 0 0 0 0 0 0 0 0 0
2 3 4 6 7 8 7 6 5 5 4 4 3 3 3 2 2 2 2 2 2 2 2 3 3 3 2 2 1 1 0 0 0 0 0 0 0 0 0 0 0 0 0
3 3 4 5 6 6 5 4 3 3 3 3 3 3 2 2 2 2 2 1 2 2 2 3 3 3 3 2 1 1 0 0 0 0 0 0 0 0 0 0 0 0 0
4 3 3 3 4 3 3 2 2 2 3 3 3 3 3 2 2 2 2 2 2 2 2 2 3 3 3 2 2 1 0 0 0 0 0 0 0 0 0 0 0 0 0
4 4 3 2 2 2 2 2 2 2 3 3 3 2 2 2 2 2 2 2 2 2 2 2 3 3 3 2 1 1 0 0 0 0 0 0 0 0 0 0 0 0 0
5 4 3 2 1 2 2 2 3 3 3 3 2 2 2 1 1 1 1 1 1 2 2 2 2 3 2 2 1 1 0 0 0 0 0 0 0 0 0 0 0 0 0
6 5 4 3 2 1 2 3 3 3 3 2 2 1 1 1 1 1 0 0 1 1 1 1 2 2 2 1 0 0 0 0 0 0 0 0 0 0 0 0 0 0 0
5 6 6 4 2 2 2 3 3 2 2 1 1 1 0 0 0 0 0 0 0 0 1 1 1 1 1 0 0 0 0 0 0 0 0 0 0 0 0 0 0 0 0
3 5 6 5 3 2 2 2 2 2 1 1 1 0 0 0 0 0 0 0 0 0 0 0 1 1 1 0 0 0 0 0 0 0 0 0 0 0 0 0 0 0 0
2 3 4 4 4 2 2 1 1 1 1 0 0 0 0 0 0 0 0 0 0 0 0 0 1 1 1 0 0 0 0 0 0 0 0 0 0 0 0 0 0 0 0
1 2 2 3 3 2 1 1 1 1 0 0 0 0 0 0 0 0 0 0 0 0 0 0 0 0 0 0 0 0 0 0 0 0 0 0 0 0 0 0 0 0 0
1 1 2 2 2 2 2 2 1 1 0 0 0 0 0 0 0 0 0 0 0 0 0 0 0 0 0 0 0 0 0 0 0 0 0 0 0 0 0 0 0 0 0
1 1 1 1 1 1 2 2 2 1 0 0 0 0 0 0 0 0 0 0 0 0 0 0 0 0 0 0 0 0 0 0 0 0 0 0 0 0 0 0 0 0 0
1 1 1 1 1 1 1 2 1 1 0 0 0 0 0 0 0 0 0 0 0 0 0 0 0 0 0 0 0 0 0 0 0 0 0 0 0 0 0 0 0 0 0
1 1 0 1 1 1 1 1 1 0 0 0 0 0 0 0 0 0 0 0 0 0 0 0 0 0 0 0 0 0 0 0 0 0 0 0 0 0 0 0 0 0 0
0 0 0 0 0 1 1 1 0 0 0 0 0 0 0 0 0 0 0 0 0 0 0 0 0 0 0 0 0 0 0 0 0 0 0 0 0 0 0 0 0 0 0

GEFSMW_con_maxscp_258.txt.gz
SCP
1 2 2 3 3 3 3 2 2 2 2 2 2 1 1 0 0 0 0 0 1 1 1 2 1 1 1 1 1 2 2 3 3 3 2 2 1 1 0 0 0 0 1
1 2 2 3 3 3 3 3 2 2 3 2 2 1 1 0 0 0 1 1 1 1 1 2 1 1 1 1 1 2 2 2 2 2 2 2 1 1 0 0 0 0 0
2 2 2 3 4 4 4 3 3 3 3 3 2 1 1 1 0 0 1 1 1 1 1 2 1 1 1 1 1 1 2 2 2 2 1 1 1 1 0 0 0 0 0
2 2 2 3 4 4 4 4 4 4 4 3 2 2 1 1 1 0 1 1 1 1 2 2 2 1 1 0 0 1 2 2 2 1 1 1 1 1 0 0 0 0 0
2 2 3 4 5 5 5 5 5 5 4 3 2 2 1 1 1 1 1 1 2 2 2 2 2 1 1 1 0 1 1 1 1 1 1 1 0 0 0 0 0 0 0
3 3 3 4 5 5 6 6 5 5 5 4 3 2 2 2 1 1 1 1 2 2 3 3 2 2 1 1 1 1 1 1 1 1 1 1 0 0 0 0 0 0 0
3 4 4 4 5 5 6 6 6 6 5 5 4 3 3 2 2 2 2 2 2 3 4 4 3 2 2 1 1 1 1 1 1 1 1 1 0 0 0 0 0 0 0
4 4 4 4 4 5 6 6 6 7 6 6 5 5 4 3 3 2 2 3 3 4 5 5 4 3 2 2 1 1 1 0 0 0 1 1 0 0 0 0 0 0 0
3 4 4 4 4 4 5 5 6 7 7 6 6 6 5 5 4 4 4 4 4 5 6 6 5 4 3 2 2 1 0 0 0 0 0 0 0 0 0 0 0 0 0
2 3 3 3 3 4 4 5 5 6 6 7 7 7 7 6 6 6 5 6 6 7 7 7 6 5 4 3 3 2 1 0 0 0 0 0 0 0 0 0 0 0 0
1 2 2 2 3 4 5 6 6 7 7 8 8 8 8 8 8 8 7 7 8 8 8 7 7 6 5 5 4 3 2 1 0 0 0 0 0 0 0 0 0 0 0
1 1 1 2 3 5 7 8 8 8 9 9 10 10 10 10 10 9 9 9 9 9 8 7 7 7 7 7 6 4 3 2 1 0 0 0 0 0 0 0 0 0 0
0 1 1 2 4 6 8 10 10 11 11 11 12 11 11 11 11 10 10 10 10 9 8 7 8 8 9 9 8 6 5 3 2 1 0 0 0 0 0 0 0 0 0
0 0 1 3 4 6 9 11 12 12 13 13 13 12 12 11 11 11 10 9 8 7 7 7 8 9 10 10 9 8 6 4 2 1 0 0 0 0 0 0 0 0 0
0 0 1 2 3 6 9 11 12 13 13 13 12 11 11 10 10 10 9 8 6 6 6 6 7 9 10 10 9 8 6 5 3 1 0 0 0 0 0 0 0 0 0
0 0 0 1 2 4 7 10 11 12 12 12 11 10 9 8 8 8 7 6 6 5 5 5 6 7 8 7 6 6 6 5 3 2 1 0 0 0 0 0 0 0 0
1 1 0 0 0 1 3 6 9 10 11 11 10 9 8 7 7 7 7 6 6 5 5 5 5 6 5 4 3 3 4 5 4 2 1 0 0 0 0 0 0 0 0
1 1 0 0 0 0 1 3 6 8 9 10 9 8 7 7 6 6 6 5 5 4 4 4 4 4 4 2 1 1 2 3 3 2 1 0 0 0 0 0 0 0 0
1 0 0 0 0 0 0 1 4 7 8 9 8 8 7 7 6 5 4 3 3 2 2 2 2 3 2 1 0 0 1 2 2 1 0 0 0 0 0 0 0 0 0
0 0 0 0 0 0 0 1 3 6 8 9 8 7 7 6 5 3 2 1 1 1 1 1 1 1 1 1 0 0 1 2 2 1 0 0 0 0 0 0 0 0 0
0 0 0 0 0 0 0 1 3 5 7 7 7 6 5 4 3 2 1 0 0 0 0 0 0 0 0 0 0 0 0 1 1 1 0 0 0 0 0 0 0 0 0
0 0 0 0 0 0 0 1 2 3 4 4 4 3 2 2 1 1 0 0 0 0 0 0 0 0 0 0 0 0 0 1 1 1 0 0 0 0 0 0 0 0 0
0 0 0 1 1 0 0 1 1 1 1 1 1 1 1 0 0 0 0 0 0 0 0 0 0 0 0 0 0 0 0 0 1 1 0 0 0 0 0 0 0 0 0
0 0 0 1 1 1 1 1 0 0 0 0 0 0 0 0 0 0 0 0 0 0 0 0 0 0 0 0 0 0 0 0 0 0 0 0 0 0 0 0 0 0 0
0 0 0 0 1 1 1 1 0 0 0 0 0 0 0 0 0 0 0 0 0 0 0 0 0 0 0 0 0 0 0 0 0 0 0 0 0 0 0 0 0 0 0
0 0 0 0 0 1 1 1 0 0 0 0 0 0 0 0 0 0 0 0 0 0 0 0 0 0 0 0 0 0 0 0 0 0 0 0 0 0 0 0 0 0 0

GEFSMW_con_maxscp_264.txt.gz
SCP
4 4 3 3 2 2 2 2 3 2 2 2 3 3 2 2 2 2 2 2 1 2 2 2 2 3 3 4 4 5 5 4 3 2 2 2 2 1 1 1 1 1 1
3 4 3 3 2 2 2 2 2 2 2 2 2 2 2 2 1 1 1 1 1 1 2 2 2 2 2 3 3 4 4 4 3 2 2 2 2 2 1 1 1 1 1
3 4 4 3 3 2 2 2 2 2 2 2 2 2 2 2 1 1 1 1 1 1 1 1 1 1 2 2 2 3 3 3 3 2 2 2 2 2 2 1 1 1 1
3 4 4 4 3 3 2 2 2 2 2 2 2 2 2 2 1 1 1 1 1 1 1 1 1 2 2 2 2 2 3 3 3 3 3 2 3 2 2 1 1 1 1
3 4 4 4 3 3 2 2 2 2 2 2 3 3 2 1 2 2 2 2 2 2 1 2 2 2 2 2 2 3 3 4 4 4 4 3 3 2 2 1 1 1 1
3 4 4 4 3 3 2 2 3 3 2 2 2 2 2 2 2 2 2 2 2 2 2 2 2 2 2 2 2 3 4 4 4 4 4 4 4 3 2 1 1 1 1
3 4 4 4 4 3 3 3 3 3 3 2 2 2 2 2 2 2 2 2 1 1 1 2 2 2 2 2 2 3 3 3 3 3 3 4 4 4 3 2 1 1 1
4 4 5 5 4 3 3 3 3 3 3 3 3 3 3 2 2 2 2 1 1 1 1 2 2 2 1 1 2 2 2 2 2 2 3 3 4 4 3 2 1 1 1
3 4 4 4 3 3 2 2 3 3 4 4 4 4 4 3 3 2 2 2 2 1 2 2 2 2 1 1 1 1 1 1 2 2 2 3 3 3 3 3 2 2 2
2 2 3 3 3 2 2 1 2 3 4 5 5 5 5 4 3 3 3 3 2 2 2 2 2 2 2 2 2 2 1 1 1 1 1 2 2 3 3 3 3 2 3
2 2 2 3 3 3 2 2 2 3 4 5 5 5 5 5 4 4 4 4 3 3 2 2 2 2 2 3 2 2 2 2 1 1 1 2 2 2 3 3 3 3 3
2 2 3 4 5 5 4 3 2 2 3 4 4 5 5 5 5 5 5 5 4 4 3 3 3 3 3 3 3 3 3 2 2 2 2 2 2 2 2 2 3 3 3
2 3 4 5 7 7 5 3 2 2 2 3 4 4 5 5 5 5 5 5 5 4 4 4 3 3 3 4 4 4 3 3 3 3 3 2 2 2 2 2 2 2 2
3 3 4 6 7 7 5 3 2 2 2 2 3 4 5 5 5 5 5 5 5 4 4 4 4 3 3 4 4 4 4 4 4 3 3 3 3 3 3 2 2 2 2
2 3 4 5 6 6 5 4 3 3 2 2 3 4 5 6 6 6 6 6 5 5 4 4 4 4 4 4 4 5 5 5 4 4 4 4 3 3 2 2 2 2 2
1 2 2 4 4 4 4 4 4 3 3 3 4 4 5 6 7 7 8 8 7 6 5 5 5 4 4 4 4 4 5 5 4 4 4 4 3 3 2 2 1 1 1
1 1 2 2 3 3 3 3 4 4 5 5 5 5 6 6 7 8 9 17 21 15 6 6 5 5 4 3 3 3 4 4 5 4 4 4 3 3 3 2 1 1 1
1 2 2 2 3 2 2 3 3 5 6 6 6 5 6 6 7 9 10 22 35 21 8 8 7 6 5 3 2 2 3 4 4 4 4 4 4 3 3 2 2 1 1
2 2 2 2 3 3 2 2 3 4 4 5 4 4 5 5 7 9 11 19 24 19 10 10 9 7 6 3 1 1 2 3 3 3 3 3 3 3 2 3 3 2 1
2 2 2 2 3 2 2 2 2 2 3 3 3 3 4 6 8 10 12 14 13 12 10 10 10 8 6 3 1 1 2 3 3 3 3 2 2 2 1 2 3 2 2
2 2 2 2 2 2 2 2 2 2 1 2 2 3 4 5 8 11 12 13 12 11 9 9 8 7 6 3 1 1 2 2 3 3 3 2 1 1 0 1 2 2 2
1 2 2 2 2 2 2 2 2 1 1 1 2 2 3 4 6 9 10 11 10 9 8 8 7 6 5 3 1 0 1 1 2 3 3 2 1 0 0 0 1 1 1
2 2 2 2 2 2 2 2 2 1 1 1 2 2 3 3 5 6 8 8 8 7 6 7 7 7 6 4 2 1 0 0 1 2 2 1 0 0 0 0 0 0 0
2 2 2 2 2 2 2 2 2 1 1 2 2 3 3 3 4 5 6 6 6 5 5 5 6 6 5 4 2 1 0 0 0 1 1 1 0 0 0 0 0 0 0
2 2 2 2 2 2 2 2 2 1 1 2 2 2 2 3 4 4 4 4 4 3 3 3 3 3 2 2 1 1 0 0 0 0 0 0 1 0 0 0 1 0 0
2 2 2 1 2 2 2 2 2 2 1 1 2 2 2 2 4 4 3 3 2 2 2 2 1 1 1 0 0 0 0 0 0 0 0 0 1 0 0 1 1 1 1

GEFSMW_con_maxscp_270.txt.gz
SCP
6 8 10 12 10 9 9 8 7 7 6 5 3 3 3 4 4 4 5 6 4 3 2 3 3 3 4 4 5 5 5 4 4 4 3 2 2 2 3 3 2 2 2
6 8 11 13 12 10 10 9 9 8 7 5 4 3 3 4 4 4 5 6 5 3 2 2 3 3 4 4 4 4 4 4 4 3 3 3 2 2 2 2 2 2 2
6 8 12 14 13 11 11 11 10 9 7 5 4 4 4 4 4 4 6 6 5 3 2 2 2 3 3 4 4 4 4 3 3 3 3 3 3 3 3 2 2 2 2
5 7 10 13 13 11 10 11 11 9 7 6 5 5 5 5 4 5 5 6 5 4 3 2 3 3 4 4 4 4 4 3 3 3 3 3 3 3 2 2 2 2 2
5 6 8 11 11 9 9 11 11 10 8 7 6 5 5 5 4 4 4 5 4 3 2 2 3 3 4 3 3 3 3 3 3 2 2 2 2 2 2 1 1 1 2
5 7 9 10 10 9 10 11 11 10 8 7 6 5 5 4 3 3 3 3 3 3 2 2 2 3 3 3 3 3 3 3 2 2 2 2 2 2 1 1 1 1 1
7 9 11 11 11 11 11 10 8 7 6 5 5 5 4 3 3 2 2 2 2 2 2 2 2 2 2 2 3 3 3 3 3 3 3 2 2 2 1 1 1 1 1
8 9 9 10 10 9 8 7 5 4 4 4 4 4 4 3 2 2 2 3 2 2 2 2 2 2 2 2 2 2 2 2 3 2 3 3 3 3 2 1 1 1 1
6 6 6 6 6 6 6 6 5 4 3 3 4 4 4 3 3 3 3 3 3 2 3 3 2 2 2 2 2 2 2 2 2 2 2 2 3 3 3 2 1 1 1
3 4 4 4 4 4 6 8 7 6 4 4 5 5 4 4 3 4 4 5 4 4 4 4 3 3 2 2 2 2 2 2 2 2 2 2 2 2 2 2 2 1 1
3 3 4 5 5 5 7 9 9 8 7 6 6 6 5 5 4 5 6 6 6 5 5 4 4 4 3 3 3 2 2 3 2 2 2 2 2 1 1 2 2 1 1
3 3 4 6 6 6 8 10 11 11 9 8 8 8 7 6 6 6 7 8 8 7 6 5 5 5 4 4 3 3 3 3 3 3 2 2 2 2 1 1 1 1 1
3 4 5 6 8 8 9 11 13 14 12 11 10 9 8 7 7 7 9 10 10 9 7 6 6 6 5 5 4 4 3 3 4 4 3 3 3 3 2 2 2 2 2
7 7 7 8 9 10 11 13 15 16 15 14 12 10 9 8 8 9 11 11 11 10 9 8 7 7 6 5 5 5 4 4 4 4 4 4 4 4 3 3 2 2 2
11 12 12 12 11 10 11 13 15 17 17 15 13 11 9 9 9 10 11 11 11 10 10 9 9 8 6 5 5 5 5 5 5 5 5 5 4 4 3 3 3 3 3
10 13 15 16 13 12 13 13 14 15 16 14 12 10 9 9 9 9 10 10 10 10 10 10 10 8 6 4 4 4 5 6 7 7 6 5 5 4 3 3 3 3 3
5 8 11 13 12 12 13 12 11 12 12 11 9 8 8 8 8 8 9 9 10 11 11 11 10 9 7 4 3 3 5 6 7 8 9 7 5 5 4 4 3 3 3
3 4 6 7 8 10 11 11 9 7 7 8 7 7 7 7 8 9 9 10 11 12 11 11 10 9 7 5 2 2 4 5 7 9 10 8 6 5 5 5 4 4 4
3 3 4 5 7 9 10 9 6 5 5 5 6 6 6 7 8 9 11 12 12 11 11 10 10 10 8 5 2 2 3 4 6 8 9 8 6 5 4 5 6 6 5
4 4 4 5 8 9 8 6 5 4 5 5 6 7 7 7 8 9 11 11 11 10 10 10 10 10 9 6 2 2 4 5 5 6 7 6 5 4 3 4 6 6 6
4 4 4 6 7 7 6 5 4 4 5 6 7 7 7 6 7 8 9 10 9 9 10 10 10 11 10 7 3 1 4 5 5 6 6 5 3 2 2 2 4 5 4
4 4 4 5 5 5 4 4 4 4 4 5 5 6 5 5 5 6 7 8 9 10 10 11 11 11 10 8 3 1 2 4 5 5 5 4 2 1 0 1 2 2 2
4 3 3 4 4 4 3 3 3 3 3 4 4 4 4 3 4 4 5 6 8 10 11 10 10 10 10 8 5 2 1 2 3 4 4 2 1 0 0 0 0 0 0
4 3 3 3 3 3 3 4 4 4 4 4 3 3 3 3 3 3 4 5 7 8 9 8 8 8 8 7 6 3 1 1 2 2 2 1 1 0 0 0 0 0 0
3 3 3 3 3 3 3 4 5 5 5 4 3 2 2 2 3 3 3 4 5 5 5 5 5 5 4 4 4 3 2 1 1 1 1 1 1 1 0 0 0 0 0
4 4 3 3 2 3 4 5 5 6 5 4 2 2 1 2 3 3 3 2 3 3 3 3 3 3 2 2 2 2 2 1 1 1 1 1 1 1 0 0 0 0 0

GEFSMW_con_maxscp_276.txt.gz
SCP
7 8 8 7 6 5 5 6 7 8 9 8 7 5 4 3 2 2 2 2 2 2 2 2 1 1 1 1 1 1 1 0 0 0 0 0 0 0 1 1 1 1 1
6 7 7 6 6 5 6 7 8 10 10 9 7 5 4 3 2 2 2 2 2 2 2 2 1 1 1 1 1 1 1 1 0 0 0 0 0 0 0 0 1 1 1
5 6 7 7 6 6 8 9 11 12 12 11 8 5 4 3 2 2 2 2 2 2 2 1 1 1 1 1 1 1 1 1 1 0 0 0 0 0 0 0 0 1 1
5 6 8 8 7 7 10 10 10 10 10 9 7 5 3 2 2 1 2 2 2 2 1 1 1 1 1 1 1 1 1 1 0 0 0 0 0 0 0 0 0 0 0
5 6 7 6 6 8 9 8 6 5 4 4 4 3 2 2 1 1 1 1 1 1 1 1 1 1 1 1 1 1 0 0 0 0 0 0 0 0 0 0 0 0 0
4 4 5 5 5 6 6 4 3 2 1 1 2 2 1 1 1 1 1 1 1 1 1 1 1 1 1 1 1 0 0 0 0 0 0 0 0 0 0 0 0 0 0
2 3 4 4 5 6 6 4 3 2 1 1 1 2 1 1 0 0 0 0 0 0 0 1 1 1 1 1 1 0 0 0 0 0 0 0 0 0 0 0 0 0 0
1 2 3 4 6 7 7 6 5 3 2 1 1 1 1 0 0 0 0 0 1 1 1 1 1 1 1 1 1 1 1 0 0 0 0 0 0 0 0 0 0 0 0
1 2 3 4 6 8 8 7 7 5 3 2 1 1 0 0 0 0 0 1 1 1 1 1 1 1 1 1 1 1 1 0 0 0 0 0 0 0 0 0 0 0 0
1 2 3 5 7 9 8 8 8 7 5 3 2 1 1 1 1 1 1 0 0 1 1 1 1 1 1 1 1 1 1 0 0 0 0 0 0 0 0 0 0 0 0
2 2 3 6 10 11 11 10 9 8 6 5 4 3 2 2 2 1 1 0 0 1 1 2 2 2 1 1 1 1 1 1 1 1 0 0 0 0 0 0 0 0 0
2 3 6 9 11 12 11 9 8 7 7 7 6 5 4 4 3 3 2 1 1 1 1 1 2 2 2 2 2 2 1 1 2 1 1 1 1 0 0 0 0 0 0
1 3 7 9 9 8 6 5 5 4 6 8 8 7 5 5 4 4 3 2 2 1 1 1 1 2 2 3 3 3 2 2 3 3 2 2 1 1 1 1 0 0 0
3 3 5 6 6 4 2 2 2 2 3 7 9 8 5 4 4 4 4 4 4 3 2 2 2 2 3 3 4 4 4 3 4 4 3 3 2 2 2 1 1 1 1
5 5 4 3 2 2 1 1 1 1 2 5 7 7 5 4 3 3 3 4 5 5 4 3 3 3 3 3 4 4 4 4 4 4 4 4 3 3 2 1 1 1 1
6 6 4 2 1 1 1 1 1 1 2 3 6 7 6 5 4 3 3 3 4 5 5 5 5 4 4 3 3 3 4 5 5 5 5 4 3 3 2 2 1 1 1
4 4 4 2 1 1 1 1 2 2 2 3 4 5 6 6 5 4 3 3 3 4 5 6 7 6 5 4 3 2 3 5 5 5 5 5 4 3 2 2 1 1 1
2 2 2 2 1 1 2 2 2 3 3 3 3 4 5 5 5 5 4 3 3 3 4 5 7 7 6 5 2 1 2 4 5 5 5 4 4 3 3 2 2 2 2
1 1 1 2 2 3 3 3 4 4 4 4 3 3 4 5 5 5 4 4 4 4 4 4 5 6 6 5 2 1 3 4 4 4 4 4 4 4 3 3 3 3 3
1 1 2 4 5 6 6 6 5 5 4 4 4 3 4 4 4 3 3 3 4 4 4 4 4 4 5 4 2 2 4 5 5 4 4 3 3 3 3 3 4 4 3
1 2 4 7 8 8 8 7 6 5 3 3 3 3 3 3 2 2 2 3 3 4 4 3 3 3 3 4 3 2 4 6 6 5 4 4 3 2 2 2 3 4 3
1 2 5 8 9 9 8 7 6 4 3 2 2 1 2 2 2 2 2 2 2 2 2 2 2 2 2 3 3 2 2 5 6 6 6 4 3 1 1 2 2 3 2
1 2 5 7 8 7 7 6 5 3 2 1 1 1 1 1 1 1 1 1 1 1 1 1 1 1 2 3 3 2 1 2 4 5 5 4 2 1 1 1 1 1 1
1 1 3 5 5 5 4 4 3 2 1 1 0 0 0 0 0 0 0 1 1 1 1 1 1 1 1 2 2 2 2 1 2 3 4 3 1 1 1 1 0 0 0
1 1 2 3 2 2 2 2 2 2 1 1 0 0 0 0 0 0 0 0 0 0 0 0 0 0 1 1 2 2 2 2 1 2 2 2 1 1 1 1 0 0 0
1 2 2 1 1 1 1 2 2 1 1 1 0 0 0 0 0 0 0 0 0 0 0 0 0 0 0 0 1 1 1 1 1 1 2 3 2 2 1 1 1 0 0

GEFSMW_con_maxscp_282.txt.gz
SCP
2 2 2 3 3 3 3 2 2 1 1 1 1 1 1 1 1 1 1 1 1 1 1 1 1 1 1 1 1 1 1 1 1 1 1 1 1 1 0 0 1 1 0
2 2 2 3 3 3 3 2 2 1 1 2 2 2 2 2 2 2 2 2 2 2 2 1 1 1 1 1 1 1 1 1 1 1 1 1 1 1 0 0 1 1 1
2 2 2 2 3 3 3 2 2 2 2 2 2 2 2 2 2 2 2 2 2 3 2 2 2 1 1 1 1 1 1 1 1 1 1 1 1 0 0 0 0 1 1
1 2 2 2 3 3 3 3 2 2 2 2 2 2 2 2 2 2 1 2 2 3 3 3 2 1 1 1 1 1 1 1 1 1 0 0 0 0 0 0 0 0 0
1 1 2 2 2 3 3 3 3 3 2 2 1 1 1 1 1 1 1 1 1 2 2 2 2 1 1 1 1 1 1 1 1 1 0 0 0 0 0 0 0 0 0
1 1 1 2 2 3 3 3 3 3 2 2 1 1 1 1 1 1 1 1 1 1 1 1 1 1 1 1 1 1 1 1 1 0 0 0 0 0 0 0 0 0 0
1 1 1 1 2 2 3 3 3 3 3 2 1 1 1 1 1 1 1 0 0 0 0 0 0 0 0 0 0 0 1 1 1 0 0 0 0 0 0 0 0 0 0
1 1 1 1 1 2 2 3 3 3 3 3 2 1 1 1 1 1 0 0 0 0 0 0 0 0 0 0 0 0 1 1 1 1 1 0 0 0 0 0 0 0 0
1 1 1 1 1 1 2 3 4 3 3 3 2 1 1 1 1 1 1 0 0 0 0 0 0 0 0 0 0 1 1 1 1 1 1 1 0 0 0 0 0 0 0
1 1 1 1 1 2 4 7 6 4 3 2 2 2 2 1 1 1 1 1 0 0 0 0 0 0 0 0 1 1 1 1 1 1 1 1 0 0 0 0 0 0 0
1 1 1 1 1 3 7 9 9 7 4 3 3 3 2 2 1 1 1 1 1 1 1 1 1 0 0 0 1 1 1 1 1 1 1 1 1 0 0 0 0 0 0
1 1 2 2 3 6 9 11 12 11 7 3 2 2 2 2 1 1 1 1 1 1 1 1 1 0 0 0 0 1 1 1 1 1 1 1 1 1 1 1 1 1 0
1 2 2 3 5 8 10 12 13 12 8 5 3 3 2 2 1 1 1 0 0 0 1 1 1 1 1 1 1 1 1 1 1 1 1 1 1 2 2 2 1 1 1
1 2 3 4 5 7 9 10 10 9 7 6 5 4 4 3 2 1 1 0 0 0 0 1 1 1 1 1 1 1 2 2 2 2 2 2 2 2 2 2 2 2 2
1 1 2 3 3 4 5 5 5 5 5 6 6 5 5 6 5 3 2 1 0 0 0 0 0 1 1 1 1 1 2 2 2 2 2 2 2 3 3 3 3 3 3
1 1 2 2 2 2 2 2 2 2 2 3 3 3 4 6 6 5 3 1 0 0 0 0 0 1 1 1 1 1 2 2 2 3 3 3 3 3 2 2 2 3 3
1 2 1 2 2 1 1 1 1 1 1 1 1 1 2 2 3 3 2 1 0 0 0 0 0 1 0 0 0 0 1 1 2 2 3 3 3 3 3 3 3 3 2
1 1 1 1 1 1 1 1 1 1 1 1 1 1 1 1 0 0 0 0 0 0 0 0 0 0 0 0 0 0 0 1 1 2 3 3 4 4 4 5 5 4 4
1 1 1 0 0 1 1 1 1 1 1 1 1 1 1 1 0 0 0 0 0 0 0 1 1 0 0 0 0 0 0 0 1 2 3 3 4 4 4 5 6 6 5
1 1 1 0 0 0 1 1 1 2 2 2 2 2 1 1 0 0 0 0 0 0 1 1 1 1 0 0 0 0 0 0 0 1 2 3 3 3 2 3 5 5 5
1 1 1 0 0 1 1 1 2 2 2 2 2 2 1 1 0 0 0 0 1 1 1 1 1 1 0 0 0 0 0 0 0 0 1 2 2 2 1 2 3 4 3
1 1 1 0 0 1 1 1 2 2 3 3 2 2 1 1 0 0 0 1 1 1 1 1 1 0 0 0 0 0 0 0 0 0 0 1 1 1 0 1 2 2 2
1 1 1 1 1 1 1 2 2 3 3 3 2 1 1 0 0 0 0 0 0 0 0 0 0 0 0 0 0 0 0 0 0 0 0 0 0 0 0 1 1 1 2
0 0 1 1 2 2 2 2 2 3 3 3 2 1 1 0 0 0 0 0 0 0 0 0 0 0 0 0 0 0 0 0 0 0 0 0 0 0 1 1 2 2 3
0 0 1 1 1 1 2 2 2 2 3 2 2 1 1 0 0 0 0 0 0 0 0 0 0 0 0 0 0 0 0 0 0 0 0 0 0 0 1 2 3 3 4
0 0 0 0 1 1 1 1 1 1 2 2 2 1 1 0 0 0 0 0 0 0 0 0 0 0 0 0 0 0 0 0 0 0 0 0 0 0 1 3 4 4 4

GEFSMW_con_maxscp_288.txt.gz
SCP
2 3 3 3 4 4 4 4 4 4 4 4 4 3 2 2 2 2 2 3 3 3 3 3 3 3 3 3 2 2 2 3 3 3 3 2 2 2 2 1 1 1 1
2 3 3 3 3 4 4 4 4 4 4 4 4 3 3 2 2 2 2 2 2 2 3 3 3 3 3 3 3 3 3 3 3 4 4 3 3 2 2 2 1 1 1
3 3 3 3 3 3 4 4 4 4 4 4 4 3 3 2 2 2 2 2 2 2 2 3 3 3 4 4 4 4 4 4 5 6 6 4 4 3 3 2 2 2 2
2 2 2 3 3 3 3 3 4 4 4 3 3 3 2 2 2 2 3 2 2 2 2 2 2 3 4 4 4 4 5 5 6 7 7 5 5 5 4 3 3 2 2
2 2 2 2 3 3 3 3 4 5 4 4 3 3 2 2 1 2 2 2 1 1 1 1 2 2 3 3 3 3 3 4 5 6 6 6 6 5 4 3 3 3 3
2 2 2 2 3 2 2 3 4 5 6 4 3 3 2 2 1 1 1 1 1 1 1 1 1 2 2 2 2 2 2 2 3 4 4 5 5 5 4 4 4 3 2
2 2 2 2 2 2 2 3 4 6 6 5 4 3 3 2 2 2 2 2 1 1 1 1 1 1 1 1 2 2 2 1 1 2 2 3 3 3 3 4 5 4 3
2 2 2 2 2 2 2 3 5 6 6 5 4 4 4 3 3 3 3 3 2 2 2 2 2 1 1 1 1 1 1 1 1 1 1 2 2 2 3 3 4 4 4
1 2 2 2 2 2 2 3 4 5 5 5 5 5 5 5 4 4 4 3 3 3 3 3 3 2 2 2 2 2 1 2 2 1 1 2 2 2 2 2 3 3 3
1 2 2 2 2 2 2 2 3 4 4 4 5 5 6 5 5 5 4 4 4 4 4 3 3 3 3 2 2 2 2 2 2 2 2 2 2 2 2 2 2 2 2
1 2 2 2 2 1 2 2 3 3 4 4 5 6 6 6 6 5 4 4 4 4 4 4 4 4 3 3 3 3 3 2 2 2 2 2 2 3 3 3 3 3 2
1 2 2 2 2 2 2 2 2 3 4 4 6 7 8 8 6 4 3 2 3 3 4 4 4 4 4 4 3 3 3 2 2 1 2 2 3 3 4 4 3 3 2
1 2 2 2 2 2 2 2 3 3 4 5 7 8 9 8 5 3 2 2 3 4 5 5 5 4 4 3 3 3 2 2 1 1 1 2 2 3 4 3 3 3 3
1 1 2 2 2 3 3 3 3 4 5 7 7 8 8 7 5 4 4 5 6 6 5 5 4 3 3 3 3 2 2 1 1 1 1 1 2 2 3 3 3 4 4
1 1 2 3 4 4 4 4 4 6 7 7 6 6 6 7 7 7 8 9 7 5 3 3 2 2 2 2 2 2 1 1 1 2 2 2 2 2 2 3 3 4 4
1 1 2 3 5 6 5 5 5 6 6 6 5 5 6 8 9 9 9 8 6 3 2 2 1 1 1 1 1 1 1 1 1 1 2 2 2 2 2 2 2 3 3
1 1 2 3 4 5 5 5 5 5 5 5 5 5 6 7 7 6 5 4 3 2 2 2 2 2 1 1 0 0 1 1 1 1 1 1 2 2 2 2 2 2 2
1 1 2 2 3 4 4 4 4 4 4 4 3 3 4 4 4 3 3 2 2 2 2 2 2 2 2 1 0 0 0 1 1 1 1 1 1 2 2 3 3 3 3
1 1 1 2 3 3 3 3 3 3 3 3 3 3 3 3 3 2 2 2 2 3 3 3 3 3 2 1 0 0 0 1 1 1 1 1 1 1 1 2 2 3 4
1 1 1 1 2 3 4 4 3 3 3 3 3 3 3 3 3 3 2 3 3 3 3 3 4 4 3 1 0 0 0 1 1 1 1 1 1 0 0 1 1 2 2
2 1 1 1 2 3 3 3 3 3 3 3 4 4 4 4 3 3 3 3 4 4 4 4 4 3 2 1 0 0 0 1 1 1 1 0 0 0 0 0 1 1 1
2 2 1 1 2 2 3 3 3 3 3 4 4 5 4 4 3 3 3 3 3 3 3 3 3 2 1 1 0 0 0 0 1 1 1 0 0 0 0 0 0 0 0
2 2 2 2 3 3 4 4 4 3 3 4 5 5 5 4 3 3 3 3 2 2 2 2 1 1 1 1 0 0 0 0 0 0 0 0 0 0 0 0 0 0 0
2 2 2 3 4 5 5 5 4 4 4 5 6 6 5 4 3 3 2 2 2 2 1 1 1 1 1 1 0 0 0 0 0 0 0 0 0 0 0 0 0 1 1
1 2 3 4 5 5 5 4 3 3 4 5 7 7 5 4 3 2 1 1 1 1 1 1 1 1 1 0 0 0 0 0 0 0 0 0 0 0 0 0 1 1 1
1 2 3 4 4 4 4 3 3 2 3 5 7 7 5 3 2 1 1 1 1 1 1 1 1 1 0 0 0 0 0 0 0 0 0 0 0 0 0 1 1 1 1